Weather in Borovoye

Russia / Tyumen Oblast     56°09′57″N   69°40′59″E
temp.,
°C
wind,
m/s
gust,
m/s
humid.,
%
clouds,
%
prec.,
mm/h
press.,
hPa
HPBL,
m
21 april, wed
wed2123:00+2w6146254 0.0 1023302
02:00+1nw5117399 0.0 1023247
05:00−1nnw49925 0.0 1026190
08:00+2n58664 0.0 1028650
11:00+5n684893 0.0 10291233
14:00+8n68405 0.0 10301573
17:00+7nne67385 0.0 10321566
20:00+4ene37561 0.0 1035177
22 april, thu
thu2223:00+1e36670 0.0 1037145
02:00−1se36720 0.0 1039152
05:00−1se36720 0.0 1041168
08:00+2sse44530 0.0 1043645
11:00+5sse45395 0.0 10431074
14:00+8sse55320 0.0 10421340
17:00+8s55310 0.0 10421465
20:00+5sse37476 0.0 1042127
23 april, fri
fri2323:00+3sse411555 0.0 1042219
02:00+2sse51356100 0.0 1042305
05:00+1sse51261100 0.0 1041296
08:00+5s61153100 0.0 1042447
11:00+10s783897 0.0 10411069
14:00+12s67325 0.0 10391577
17:00+12s673183 0.0 10381713
20:00+8sse4946100 0.0 1038191
24 april, sat
sat2423:00+6sse51149100 0.0 1037261
02:00+4sse41057100 0.0 1036211
05:00+3sse4961100 0.0 1036200
08:00+7s594797 0.0 1035391
11:00+11s6832100 0.0 10331247
14:00+13s6728100 0.0 10321690
17:00+12s5629100 0.0 10301786
20:00+9se3843100 0.0 1029175
25 april, sun
sun2523:00+8se51242100 0.0 1028315
02:00+7sse51045100 0.0 1027294
05:00+6se51152100 0.0 1026310
08:00+8sse61245100 0.0 1024497
11:00+12sse91232100 0.0 10211060
14:00+14sse91230100 0.0 10191543
17:00+15sse71228100 0.0 10172124
20:00+12s51036100 0.0 1016357